Paynesville, MN

5:19 PM CDT on May 27, 2018 (GMT -0500)
Paynesville

Weather History for KPEX - September, 2013

Change the Weather History Date:

Friday, September 6, 2013

  Actual Average (KLJF) Record (KLJF)
Temperature  
Mean Temperature 80 °F -  
Max Temperature 92 °F 77 °F 94 °F (1960)
Min Temperature 68 °F 54 °F 36 °F (1956)
Cooling Degree Days 15    
Growing Degree Days 30 (Base 50)    
Moisture  
Dew Point 64 °F    
Average Humidity 65    
Maximum Humidity 93    
Minimum Humidity 35    
Precipitation  
Precipitation 0.00 in - - ()
Sea Level Pressure  
Sea Level Pressure 29.97 in    
Wind  
Wind Speed 6 mph (South)    
Max Wind Speed 16 mph    
Max Gust Speed 22 mph    
Visibility 9 miles    
Events      
Averages and records for this station are not official NWS values.
T = Trace of Precipitation, MM = Missing Value Source: NWS Daily Summary

Daily Weather History Graph

Daily Weather History Graph

Search for Another Location

Airport or City:

Astronomy

Sep. 06, 2013 Rise Set
Actual Time 6:46 AM CDT 7:46 PM CDT
Civil Twilight 6:16 AM CDT 8:16 PM CDT
Nautical Twilight 5:40 AM CDT 8:52 PM CDT
Astronomical Twilight 5:02 AM CDT 9:30 PM CDT
Moon 8:06 AM CDT (9/6) 8:03 PM CDT (9/6)
Length of Visible Light 13h 59m
Length of Day
12h 59m
New Moon, 2% of the Moon is Illuminated
Sep 6
New Moon
Sep 12
First Quarter
Sep 19
Full
Sep 26
Last Quarter
Oct 4
New

Hourly Weather History & Observations

Time (CDT) Temp. Heat Index Dew Point Humidity Pressure Visibility Wind Dir Wind Speed Gust Speed Precip Events Conditions
12:12 AM 71.4 °F - 68.0 °F 89% 30.09 in 10.0 mi SSE 4.6 mph - N/A   Clear
12:33 AM 70.9 °F - 67.6 °F 89% 30.09 in 10.0 mi SSE 3.5 mph - N/A   Clear
12:52 AM 70.7 °F - 67.8 °F 91% 30.09 in 10.0 mi SE 5.8 mph - N/A   Clear
1:12 AM 70.0 °F - 67.8 °F 93% 30.09 in 10.0 mi SE 5.8 mph - N/A   Clear
1:33 AM 70.0 °F - 67.6 °F 92% 30.09 in 10.0 mi SSE 3.5 mph - N/A   Clear
1:52 AM 69.8 °F - 67.1 °F 91% 30.09 in 10.0 mi SSE 4.6 mph - N/A   Clear
2:12 AM 69.8 °F - 66.7 °F 90% 30.09 in 10.0 mi SSE 3.5 mph - N/A   Scattered Clouds
2:33 AM 69.4 °F - 66.2 °F 89% 30.09 in 10.0 mi South 4.6 mph - N/A   Mostly Cloudy
2:53 AM 69.3 °F - 65.5 °F 88% 30.08 in 10.0 mi SSE 4.6 mph - N/A   Scattered Clouds
3:13 AM 69.4 °F - 64.8 °F 85% 30.08 in 10.0 mi South 4.6 mph - N/A   Clear
3:32 AM 69.4 °F - 63.7 °F 82% 30.08 in 10.0 mi South 4.6 mph - N/A   Clear
3:53 AM 69.3 °F - 63.0 °F 80% 30.08 in 10.0 mi South 4.6 mph - N/A   Clear
4:13 AM 69.1 °F - 62.8 °F 80% 30.07 in 10.0 mi SSE 6.9 mph - N/A   Clear
4:33 AM 68.9 °F - 63.5 °F 83% 30.07 in 10.0 mi SSE 6.9 mph - N/A   Clear
4:53 AM 68.9 °F - 63.7 °F 83% 30.07 in 10.0 mi SSE 6.9 mph - N/A   Mostly Cloudy
5:12 AM 69.3 °F - 63.7 °F 82% 30.06 in 10.0 mi South 8.1 mph - N/A   Mostly Cloudy
5:33 AM 68.9 °F - 63.5 °F 83% 30.06 in 10.0 mi SSE 8.1 mph - N/A   Scattered Clouds
5:53 AM 68.9 °F - 63.5 °F 83% 30.05 in 10.0 mi SSE 6.9 mph - N/A   Scattered Clouds
6:12 AM 68.9 °F - 63.5 °F 83% 30.05 in 10.0 mi SSE 9.2 mph - N/A   Scattered Clouds
6:33 AM 69.1 °F - 63.5 °F 82% 30.04 in 10.0 mi SSE 9.2 mph - N/A   Mostly Cloudy
6:53 AM 69.1 °F - 63.5 °F 82% 30.04 in 10.0 mi SSE 9.2 mph - N/A   Mostly Cloudy
7:13 AM 69.3 °F - 63.5 °F 82% 30.04 in 10.0 mi SSE 10.4 mph - N/A   Scattered Clouds
7:33 AM 69.8 °F - 63.5 °F 80% 30.03 in 10.0 mi SSE 8.1 mph 17.3 mph N/A   Scattered Clouds
7:52 AM 70.5 °F - 63.7 °F 79% 30.02 in 10.0 mi South 9.2 mph - N/A   Scattered Clouds
8:13 AM 71.6 °F - 63.5 °F 76% 30.02 in 10.0 mi South 8.1 mph - N/A   Scattered Clouds
8:33 AM 72.5 °F - 63.3 °F 73% 30.02 in 10.0 mi South 9.2 mph 16.1 mph N/A   Clear
8:52 AM 73.4 °F - 63.0 °F 70% 30.01 in 10.0 mi SSE 9.2 mph - N/A   Clear
9:13 AM 75.2 °F - 62.8 °F 65% 30.01 in 10.0 mi South 12.7 mph 17.3 mph N/A   Clear
9:33 AM 76.1 °F - 62.6 °F 63% 30.01 in 10.0 mi South 9.2 mph 17.3 mph N/A   Clear
9:53 AM 77.7 °F - 61.9 °F 58% 30.00 in 10.0 mi South 10.4 mph 17.3 mph N/A   Clear
10:12 AM 79.2 °F - 61.7 °F 55% 30.00 in 10.0 mi South 6.9 mph - N/A   Clear
10:33 AM 80.6 °F 81.7 °F 62.1 °F 53% 30.00 in 10.0 mi South 10.4 mph - N/A   Clear
10:53 AM 81.3 °F 82.2 °F 61.7 °F 51% 29.99 in 10.0 mi South 11.5 mph 17.3 mph N/A   Clear
11:12 AM 81.9 °F 82.5 °F 61.2 °F 49% 29.99 in 10.0 mi South 12.7 mph 18.4 mph N/A   Clear
11:33 AM 83.5 °F 83.9 °F 61.3 °F 47% 29.98 in 10.0 mi SSW 11.5 mph 18.4 mph N/A   Clear
11:53 AM 85.1 °F 85.2 °F 61.2 °F 44% 29.97 in 7.0 mi South 12.7 mph - N/A   Clear
12:13 PM 85.6 °F 85.9 °F 61.3 °F 44% 29.96 in 7.0 mi South 12.7 mph 19.6 mph N/A   Scattered Clouds
12:32 PM 85.1 °F 85.7 °F 61.9 °F 46% 29.95 in 7.0 mi South 12.7 mph 16.1 mph N/A   Scattered Clouds
12:53 PM 87.1 °F 87.2 °F 61.7 °F 42% 29.95 in 7.0 mi South 16.1 mph 21.9 mph N/A   Scattered Clouds
1:13 PM 88.0 °F 88.1 °F 61.9 °F 41% 29.94 in 7.0 mi South 11.5 mph 19.6 mph N/A   Clear
1:33 PM 89.2 °F 89.9 °F 62.8 °F 41% 29.93 in 7.0 mi South 9.2 mph 16.1 mph N/A   Clear
1:52 PM 89.4 °F 89.8 °F 62.2 °F 40% 29.93 in 7.0 mi SSW 12.7 mph 19.6 mph N/A   Clear
2:13 PM 90.5 °F 91.4 °F 62.8 °F 40% 29.93 in 7.0 mi SSW 10.4 mph 17.3 mph N/A   Clear
2:33 PM 90.7 °F 91.3 °F 62.8 °F 39% 29.92 in 7.0 mi SSW 12.7 mph 20.7 mph N/A   Clear
2:52 PM 91.4 °F 92.1 °F 62.6 °F 38% 29.91 in 5.0 mi SSW 13.8 mph 19.6 mph N/A   Haze
3:13 PM 91.9 °F 92.5 °F 62.2 °F 37% 29.90 in 7.0 mi South 11.5 mph - N/A   Clear
3:33 PM 92.1 °F 92.8 °F 62.1 °F 37% 29.90 in 7.0 mi SSW 11.5 mph 19.6 mph N/A   Clear
3:52 PM 92.8 °F 93.1 °F 61.2 °F 35% 29.89 in 10.0 mi SSW 13.8 mph 18.4 mph N/A   Clear
4:12 PM 92.3 °F 92.7 °F 61.5 °F 36% 29.89 in 5.0 mi SSW 9.2 mph 17.3 mph N/A   Haze
4:33 PM 92.1 °F 92.8 °F 62.2 °F 37% 29.89 in 7.0 mi South 9.2 mph 16.1 mph N/A   Clear
4:53 PM 92.5 °F 93.7 °F 63.3 °F 38% 29.88 in 7.0 mi South 9.2 mph - N/A   Clear
5:12 PM 91.9 °F 92.9 °F 62.8 °F 38% 29.88 in 7.0 mi SSW 9.2 mph - N/A   Clear
5:33 PM 91.4 °F 92.1 °F 62.6 °F 38% 29.88 in 7.0 mi SSW 9.2 mph - N/A   Clear
5:53 PM 90.5 °F 91.8 °F 63.7 °F 41% 29.88 in 7.0 mi SW 6.9 mph - N/A   Clear
6:13 PM 88.7 °F 90.4 °F 64.6 °F 45% 29.88 in 5.0 mi SSW 3.5 mph - N/A   Haze
6:33 PM 87.8 °F 89.7 °F 65.3 °F 47% 29.87 in 7.0 mi Calm Calm - N/A   Clear
6:53 PM 86.9 °F 88.9 °F 65.8 °F 49% 29.87 in 7.0 mi Calm Calm - N/A   Clear
7:12 PM 86.2 °F 88.4 °F 66.2 °F 51% 29.87 in 7.0 mi Calm Calm - N/A   Clear
7:33 PM 85.5 °F 88.2 °F 67.1 °F 54% 29.87 in 10.0 mi Calm Calm - N/A   Clear
7:53 PM 83.7 °F 86.2 °F 67.1 °F 57% 29.87 in 7.0 mi Calm Calm - N/A   Clear
8:13 PM 82.4 °F 85.0 °F 67.5 °F 60% 29.87 in 10.0 mi Calm Calm - N/A   Clear
8:32 PM 81.1 °F 83.9 °F 67.8 °F 64% 29.87 in 10.0 mi Calm Calm - N/A   Clear
8:53 PM 79.9 °F - 67.8 °F 66% 29.87 in 10.0 mi Calm Calm - N/A   Clear
9:12 PM 79.5 °F - 68.0 °F 68% 29.87 in 10.0 mi Calm Calm - N/A   Clear
9:32 PM 75.4 °F - 68.0 °F 78% 29.88 in 10.0 mi Calm Calm - N/A   Clear
9:53 PM 73.9 °F - 67.5 °F 80% 29.88 in 10.0 mi Calm Calm - N/A   Clear
10:13 PM 73.2 °F - 66.4 °F 79% 29.88 in 10.0 mi Calm Calm - N/A   Clear
10:33 PM 72.0 °F - 66.4 °F 83% 29.88 in 10.0 mi Calm Calm - N/A   Clear
10:53 PM 71.6 °F - 66.7 °F 85% 29.88 in 7.0 mi Calm Calm - N/A   Clear
11:12 PM 70.3 °F - 65.5 °F 85% 29.88 in 7.0 mi Calm Calm - N/A   Clear
11:33 PM 69.4 °F - 66.2 °F 89% 29.88 in 7.0 mi Calm Calm - N/A   Clear
11:53 PM 69.3 °F - 66.6 °F 91% 29.88 in 7.0 mi Calm Calm - N/A   Clear